Flag Weather past 2 weeks in Austin, Texas, U.S.A.

Now
56 °F

Clear.


Feels Like: 55 °F
Forecast: 55 / 74 °F
Wind: 5 mph from South

Location: Camp Mabry / Austin City

Current Time: Nov 29, 2014 at 12:45:24 AM

Latest Report: Nov 28, 2014 at 11:51 PM


Visibility: 10 mi

Pressure: 30.09 "Hg

Humidity: 81%

Dew point: 50 °F

Location of AustinLocation

Historic Weather in Austin — Graph

°F

Austin temperature yesterday

Maximum temperature yesterday: 72 °F (at 2:51 PM)
Minimum temperature yesterday: 42 °F (at 4:51 AM)
Average temperature yesterday: 57 °F

Past Weeks' High & Low Weather Summary

 TemperatureHumidityPressure
High80 °F (Nov 23, 1:51 PM)100% (Nov 15, 9:51 PM)30.57 "Hg (Nov 15, 9:51 PM)
Low30 °F (Nov 17, 4:51 AM)18% (Nov 24, 12:51 PM)29.51 "Hg (Nov 23, 1:51 PM)
Average52 °F66%30.17 "Hg
* Reported Nov 13 10:51 PM — Nov 28 10:51 PM, Austin, Weather by CustomWeather, © 2014

Note: Actual official high and low records may vary slightly from our data, if they occured in-between our weather recording intervals... More about our weather records

Advertising

Austin weather history for previous 24 hours

 ConditionsComfort  
Time TempWeatherWind HumidityBarometerVisibility
10:51 PM
Nov 28
56 °FClear.5 mph75%30.10 "Hg10 mi
9:51 PM56 °FClear.3 mph72%30.11 "Hg10 mi
8:51 PM58 °FClear.No wind70%30.10 "Hg10 mi
7:51 PM60 °FClear.3 mph62%30.11 "Hg10 mi
6:51 PM62 °FClear.No wind58%30.12 "Hg10 mi
5:51 PM64 °FClear.3 mph54%30.12 "Hg10 mi
4:51 PM68 °FSunny.7 mph45%30.12 "Hg10 mi
3:51 PM71 °FSunny.5 mph41%30.12 "Hg10 mi
2:51 PM72 °FSunny.8 mph44%30.14 "Hg10 mi
1:51 PM71 °FPassing clouds.8 mph49%30.16 "Hg10 mi
12:51 PM71 °FSunny.13 mph47%30.19 "Hg10 mi
11:51 AM67 °FSunny.9 mph61%30.24 "Hg10 mi
10:51 AM63 °FPassing clouds.6 mph73%30.29 "Hg10 mi
9:51 AM57 °FOvercast.6 mph78%30.32 "Hg10 mi
8:51 AM53 °FOvercast.3 mph77%30.32 "Hg10 mi
7:51 AM49 °FBroken clouds.3 mph77%30.32 "Hg10 mi
6:51 AM46 °FPassing clouds.No wind68%30.32 "Hg10 mi
5:51 AM43 °FPassing clouds.No wind79%30.32 "Hg10 mi
4:51 AM42 °FClear.No wind79%30.33 "Hg10 mi
3:51 AM43 °FClear.No wind76%30.34 "Hg10 mi
2:51 AM43 °FClear.No wind74%30.36 "Hg10 mi
1:51 AM44 °FClear.No wind71%30.36 "Hg10 mi
12:51 AM44 °FClear.No wind73%30.37 "Hg10 mi
Weather by CustomWeather, © 2014

See weather overviewHow to use our weather pages